{"data":{"norad_id":56406,"intl_designator":"2023-061AJ","name":"STARLINK-6283","alt_names":[],"object_type":"PAYLOAD","status":"ACTIVE","operator":null,"country":"US","launch_date":"2023-05-04","launch_site_code":"AFETR","launch_vehicle":null,"mission":null,"orbit_class":"UNKNOWN","rcs_meters":null,"size_class":null,"mass_kg":null,"dimensions":null,"purposes":["comms"],"wikipedia_slug":null,"has_3d_model":false,"image_url":null,"decayed_at":null,"tle_current":{"epoch":"2026-05-25T05:10:11.443008Z","epoch_age_seconds":66925,"freshness":"FRESH","line1":"1 56406U 23061AJ  26145.21541022 -.00000461  00000+0 -72289-5 0  9993","line2":"2 56406  43.0007 115.2455 0000790 256.7009 103.3754 15.27568579168570","mean_motion":15.27568579,"eccentricity":7.9e-5,"inclination_deg":43.0007,"raan_deg":115.2455,"arg_perigee_deg":256.7009,"mean_anomaly_deg":103.3754,"bstar":-7.2289e-6,"rev_number":16857,"period_min":94.267453507238,"perigee_km":482.54125843212,"apogee_km":483.6253312387,"semimajor_km":6861.2202948354,"source":"CELESTRAK","updated_at":"2026-05-25T13:38:18.016383Z"}}}